Lexington Weather

Lexington, Massachusetts, USA

43°F
4/22/2024 8:42am 
  • Lexington Conditions: Clear
  • Temperature: 43.2°F / 6.2°CWarmer 3.8°F than last hour.
  • Dew Point: 27.1°FDecreased 2.6°Fsince last hour.
  • Relative Humidity: 53%Decreased 15.0% since last hour.
  • Wind: Calm, 10-min avg: Calm, gust: None
  • Barometer: 29.96 inRising 0.02  inHg/hr Rising Slowly
  • Visibility: 10 miles
  • Rain Today: 0.00 in
  •   

Regional Weather Roundup
for Boston, MA

        
000
ASUS41 KBOX 201510
RWRBOX

REGIONAL WEATHER ROUNDUP
NATIONAL WEATHER SERVICE BOSTON/NORTON MA
1100 AM EDT SAT APR 20 2024

NOTE:  "FAIR" INDICATES FEW OR NO CLOUDS BELOW 12,000 FEET WITH NO 
SIGNIFICANT WEATHER AND/OR OBSTRUCTIONS TO VISIBILITY.

MAZALL-201600-
EASTERN MASSACHUSETTS
  
CITY           SKY/WX    TMP DP  RH WIND       PRES   REMARKS
BOSTON         LGT RAIN  50  50 100 S8        29.92S                  
BEVERLY        CLOUDY    50  48  93 SW5       29.91F                  
LAWRENCE       CLOUDY    50  48  93 S5        29.92F                  
BEDFORD        CLOUDY    50  48  93 S6        29.90F                  
NORWOOD        LGT RAIN  52  48  86 S5        29.92F                  
MARSHFIELD     DRIZZLE   48  48 100 SW6       29.93F                  
PLYMOUTH       LGT RAIN  49  47  93 S5        29.91F                  
TAUNTON        RAIN      51  47  86 MISG      29.93S FOG              
NEW BEDFORD    LGT RAIN  49  48  97 SW7       29.94R                  
$$

MAZALL-201600-
CAPE COD AND THE ISLANDS
  
CITY           SKY/WX    TMP DP  RH WIND       PRES   REMARKS
FALMOUTH       NOT AVBL                                               
HYANNIS        LGT RAIN  47  47 100 S5        29.91F FOG              
CHATHAM        LGT RAIN  48  48 100 CALM      29.94F VSB 1            
PROVINCETOWN   RAIN      48  48 100 S7        29.92F FOG              
NANTUCKET      FOG       47  47 100 SW7       29.94F VSB 1/2          
MARTHAS VNYRD  LGT RAIN  48  48 100 SW6       29.93F                  
$$
 
MAZALL-201600-
CENTRAL AND WESTERN MASSACHUSETTS
  
CITY           SKY/WX    TMP DP  RH WIND       PRES   REMARKS
WORCESTER      CLOUDY    50  47  89 W8        29.90F                  
FITCHBURG      CLOUDY    52  46  80 S5        29.90F                  
ORANGE         PTSUNNY   53  49  86 S8        29.89F                  
SPRINGFIELD    PTSUNNY   53  48  83 SW6       29.88F                  
WESTFIELD      MOSUNNY   55  49  80 VRB5      29.90F                  
NORTH ADAMS    CLOUDY    54  39  57 W10       29.91S                  
PITTSFIELD     CLOUDY    50  39  66 NW14      29.90S                  
$$
 
RIZALL-201600-
RHODE ISLAND
  
CITY           SKY/WX    TMP DP  RH WIND       PRES   REMARKS
PROVIDENCE     LGT RAIN  49  49 100 SW3       29.93F FOG              
NEWPORT        LGT RAIN  46  46 100 CALM      29.93F FOG              
BLOCK ISLAND   LGT RAIN  45  45 100 SW9       29.95F FOG              
SMITHFIELD     LGT RAIN  48  48 100 CALM      29.92F                  
WESTERLY       LGT RAIN  48  46  93 SW6       29.94F FOG              
$$
 
CTZALL-201600-
CONNECTICUT
  
CITY           SKY/WX    TMP DP  RH WIND       PRES   REMARKS
BRADLEY INTL   CLOUDY    54  48  80 S5        29.92F                  
HARTFORD       CLOUDY    53  49  86 S6        29.92F                  
PLAINVILLE     CLOUDY    53  50  90 VRB3      29.91F                  
BRIDGEPORT     CLOUDY    50  48  93 SW7       29.94S                  
DANBURY        PTSUNNY   54  49  83 W6        29.94S                  
GROTON         LGT RAIN  50  49  96 SW7       29.93F                  
NEW HAVEN      CLOUDY    51  50  96 SW6       29.94S FOG              
CHESTER        CLOUDY    50  50 100 VRB5      29.93S                  
MERIDEN        CLOUDY    52  47  83 S5        29.93F                  
WILLIMANTIC    CLOUDY    49  47  93 W3        29.93F                  
OXFORD         CLOUDY    50  48  93 SW3       29.93F                  
$$

MEZ002-015-021-024-NHZ003-005-008-011-012-014-VTZ005-008-201600-
NORTHERN NEW ENGLAND
  
CITY           SKY/WX    TMP DP  RH WIND       PRES   REMARKS
PORTLAND ME    CLOUDY    48  47  96 SW7       29.90F                  
BANGOR ME      LGT RAIN  46  43  89 S9        29.87S FOG              
CONCORD NH     PTSUNNY   50  48  93 S6        29.88F                  
MANCHESTER NH  CLOUDY    52  47  83 SW6       29.88F                  
NASHUA NH      CLOUDY    51 N/A N/A CALM      29.90F                  
PORTSMOUTH NH  LGT RAIN  50  47  91 SW3       29.88F                  
JAFFREY NH     CLOUDY    51  45  79 S7        29.89S                  
KEENE NH       CLOUDY    51  47  86 W6        29.89F                  
BURLINGTON VT  PTSUNNY   52  21  29 VRB5      29.88F                  
MT. WASHINGTON SNOW      27  27 100 W31         N/A  VSB 0   WCI  10  
$$

NYZ052-076-201600-
EASTERN NEW YORK
  
CITY           SKY/WX    TMP DP  RH WIND       PRES   REMARKS
ALBANY         PTSUNNY   54  37  52 NW8G20    29.94S                  
NEW YORK CITY  CLOUDY    54  50  86 CALM      29.95S                  
$$
 
ANZALL-201600-
MARINE OBSERVATIONS
  
STATION/POSITION TIME  TEMP    WIND        PRES    VSBY  WAVE
                       AIR SEA DIR/SP/G                  HT/PER
                 (UTC) (F)     (DEG/KT/KT) (MB)    (MI)  (FT/S)
BOSTON BUOY      1440   46     180/  6/  8 1012.7F
BUZZARDS BAY     1400   45     220/  6/  7 1014.9R
NANTUCKET SOUND  1450   47 48  240/  8/ 10 1013.4F         1/ 7
MASS BAY-STELLWA 1304   46 45  180/ 10/ 12 1013.6F  1 7/8  2/ 8
ISLE OF SHOALS   1400   46     220/ 10/ 11 1012.8F
S OF BLOCK IS    1456      45                N/A           4/ 8
$$

......................KEY.........................
  SKY/WX - SKY CONDITION/PRESENT WEATHER
  TMP    - TEMPERATURE IN FAHRENHEIT
  DWPT   - DEWPOINT IN FAHRENHEIT
  RH     - RELATIVE HUMIDITY IN PERCENT
  WIND   - DIRECTION AND SPEED IN MPH
  PRES   - MEAN SEA LEVEL PRESSURE IN INCHES OF HG
  WCI    - WIND CHILL INDEX
  VSB    - VISIBILITY IN MILES
  HX     - HEAT INDEX
  TC     - TEMPERATURE IN CELSIUS
  VRB    - VARIABLE WIND DIRECTION
  N/A    - NOT AVAILABLE
  
      

Other recent Regional Weather Roundups

Mon Apr 22, 8:10am EDT

Mon Apr 22, 7:10am EDT

Mon Apr 22, 6:10am EDT

Mon Apr 22, 5:10am EDT

Mon Apr 22, 4:10am EDT

Mon Apr 22, 3:10am EDT

Mon Apr 22, 2:10am EDT

Mon Apr 22, 1:10am EDT

Mon Apr 22, 12:10am EDT

Sun Apr 21, 11:10pm EDT

Sun Apr 21, 10:10pm EDT

Sun Apr 21, 9:10pm EDT

Sun Apr 21, 8:10pm EDT

Sun Apr 21, 7:10pm EDT

Sun Apr 21, 6:10pm EDT

Sun Apr 21, 5:10pm EDT

Sun Apr 21, 4:10pm EDT

Sun Apr 21, 3:10pm EDT

Sun Apr 21, 2:10pm EDT

Sun Apr 21, 1:10pm EDT

Sun Apr 21, 12:10pm EDT

Sun Apr 21, 11:10am EDT

Sun Apr 21, 10:10am EDT

Sun Apr 21, 9:10am EDT

Sun Apr 21, 8:10am EDT

Sun Apr 21, 7:10am EDT

Sun Apr 21, 6:10am EDT

Sun Apr 21, 5:10am EDT

Sun Apr 21, 4:10am EDT

Sun Apr 21, 3:10am EDT

Sun Apr 21, 2:10am EDT

Sun Apr 21, 1:10am EDT

Sun Apr 21, 12:10am EDT

Sat Apr 20, 11:10pm EDT

Sat Apr 20, 10:10pm EDT

Sat Apr 20, 9:10pm EDT

Sat Apr 20, 8:10pm EDT

Sat Apr 20, 7:10pm EDT

Sat Apr 20, 6:10pm EDT

Sat Apr 20, 5:10pm EDT

Sat Apr 20, 4:10pm EDT

Sat Apr 20, 3:10pm EDT

Sat Apr 20, 2:10pm EDT

Sat Apr 20, 1:10pm EDT

Sat Apr 20, 12:10pm EDT

Sat Apr 20, 10:10am EDT

Sat Apr 20, 9:10am EDT

Sat Apr 20, 8:10am EDT

Sat Apr 20, 7:10am EDT

Sat Apr 20, 6:10am EDT

Sat Apr 20, 5:10am EDT

Sat Apr 20, 4:10am EDT

Sat Apr 20, 3:10am EDT

Sat Apr 20, 2:10am EDT

Sat Apr 20, 1:10am EDT

Sat Apr 20, 12:10am EDT

Fri Apr 19, 11:10pm EDT

Fri Apr 19, 10:10pm EDT

Fri Apr 19, 9:10pm EDT

Fri Apr 19, 8:10pm EDT

Fri Apr 19, 7:10pm EDT

Fri Apr 19, 6:10pm EDT

Fri Apr 19, 5:10pm EDT

Fri Apr 19, 4:10pm EDT

Fri Apr 19, 3:10pm EDT

Fri Apr 19, 2:10pm EDT

Fri Apr 19, 1:10pm EDT

Fri Apr 19, 12:10pm EDT

Fri Apr 19, 11:10am EDT

Fri Apr 19, 10:10am EDT

Fri Apr 19, 9:10am EDT

Fri Apr 19, 8:10am EDT

Fri Apr 19, 7:10am EDT

Fri Apr 19, 6:10am EDT

Fri Apr 19, 5:10am EDT

Fri Apr 19, 4:10am EDT

Fri Apr 19, 3:10am EDT

Fri Apr 19, 2:10am EDT

Fri Apr 19, 1:10am EDT

Fri Apr 19, 12:10am EDT

Thu Apr 18, 11:10pm EDT

Thu Apr 18, 10:10pm EDT

Thu Apr 18, 9:10pm EDT

Thu Apr 18, 8:10pm EDT

Thu Apr 18, 7:10pm EDT

Thu Apr 18, 6:10pm EDT

Thu Apr 18, 5:10pm EDT

Thu Apr 18, 4:10pm EDT

Thu Apr 18, 3:10pm EDT

Thu Apr 18, 2:10pm EDT

Thu Apr 18, 1:10pm EDT

Thu Apr 18, 12:10pm EDT

Thu Apr 18, 11:10am EDT

Thu Apr 18, 10:10am EDT

Thu Apr 18, 9:10am EDT

Thu Apr 18, 8:10am EDT

Thu Apr 18, 7:10am EDT

Thu Apr 18, 6:10am EDT

Thu Apr 18, 5:10am EDT

Thu Apr 18, 4:10am EDT

Thu Apr 18, 3:10am EDT

Thu Apr 18, 2:10am EDT

Thu Apr 18, 1:10am EDT

Thu Apr 18, 12:10am EDT

Wed Apr 17, 11:10pm EDT

Wed Apr 17, 10:10pm EDT

Wed Apr 17, 9:10pm EDT

Wed Apr 17, 8:10pm EDT

Wed Apr 17, 7:10pm EDT

Wed Apr 17, 6:10pm EDT

Wed Apr 17, 5:10pm EDT

Wed Apr 17, 4:10pm EDT

Wed Apr 17, 3:10pm EDT

Wed Apr 17, 2:10pm EDT

Wed Apr 17, 1:10pm EDT

Wed Apr 17, 12:10pm EDT

Wed Apr 17, 11:10am EDT

Wed Apr 17, 10:10am EDT

Wed Apr 17, 9:10am EDT

Wed Apr 17, 8:10am EDT

Wed Apr 17, 7:10am EDT

Wed Apr 17, 6:10am EDT

Wed Apr 17, 5:10am EDT

Wed Apr 17, 4:10am EDT

Wed Apr 17, 3:10am EDT

Wed Apr 17, 2:10am EDT

Wed Apr 17, 1:10am EDT

Wed Apr 17, 12:10am EDT

Tue Apr 16, 11:10pm EDT

Tue Apr 16, 10:10pm EDT

Tue Apr 16, 9:10pm EDT

Tue Apr 16, 8:10pm EDT

Tue Apr 16, 7:10pm EDT

Tue Apr 16, 6:10pm EDT

Tue Apr 16, 5:10pm EDT

Tue Apr 16, 4:10pm EDT

Tue Apr 16, 3:10pm EDT

Tue Apr 16, 2:10pm EDT

Tue Apr 16, 1:10pm EDT

Tue Apr 16, 12:10pm EDT

Tue Apr 16, 11:10am EDT

Tue Apr 16, 10:10am EDT

Tue Apr 16, 9:10am EDT

Tue Apr 16, 8:10am EDT

Tue Apr 16, 7:10am EDT

Tue Apr 16, 6:10am EDT

Tue Apr 16, 5:10am EDT

Tue Apr 16, 4:10am EDT

Tue Apr 16, 3:10am EDT

Tue Apr 16, 2:10am EDT

Tue Apr 16, 1:10am EDT

Tue Apr 16, 12:10am EDT

Mon Apr 15, 11:10pm EDT

Mon Apr 15, 10:10pm EDT

Mon Apr 15, 9:10pm EDT

Mon Apr 15, 8:10pm EDT

Mon Apr 15, 7:10pm EDT

Mon Apr 15, 6:10pm EDT

Mon Apr 15, 5:10pm EDT

Mon Apr 15, 4:10pm EDT

Mon Apr 15, 3:10pm EDT

Mon Apr 15, 2:10pm EDT

Mon Apr 15, 1:10pm EDT

Mon Apr 15, 12:10pm EDT

Mon Apr 15, 11:10am EDT

Mon Apr 15, 10:10am EDT

Mon Apr 15, 9:10am EDT